G4GJR Weather Reports


time (UTC)temp
C
wind
direction
speed
KPH
gust
KPH
rain 1hr
cm
rain 24hr
cm
rain mn
cm
humidity
%
barometer
mb
20260506044504 7 28 3.2 9.7 0.00 0.00 0.00 83 1014.1
20260506043004 6 346 3.2 4.8 0.00 0.00 0.00 83 1014.1
20260506041504 7 19 3.2 12.9 0.00 0.00 0.00 82 1014.2
20260506033005 7 1 4.8 11.3 0.00 0.00 0.00 82 1014.1
20260506030004 7 358 6.4 14.5 0.00 0.00 0.00 82 1014.3
20260506024504 7 13 4.8 12.9 0.00 0.00 0.00 82 1014.3
20260506023004 7 16 4.8 16.1 0.00 0.00 0.00 81 1014.4
20260506021504 7 15 8.0 14.5 0.00 0.00 0.00 81 1014.3
20260506014504 7 334 8.0 14.5 0.00 0.00 0.00 81 1014.4
20260506013004 7 9 3.2 12.9 0.00 0.00 0.00 80 1014.4
20260506011503 7 19 4.8 19.3 0.00 0.00 0.00 80 1014.3
20260506010004 8 19 6.4 16.1 0.00 0.00 0.00 80 1014.3
20260506004504 8 69 8.0 14.5 0.00 0.00 0.00 80 1014.5
20260506003004 8 351 6.4 14.5 0.00 0.00 0.00 81 1014.6
20260506001504 8 1 6.4 12.9 0.00 0.00 0.00 82 1014.5
20260506000003 8 351 3.2 12.9 0.00 0.00 0.00 82 1014.5
20260505234504 8 357 4.8 11.3 0.00 0.00 0.00 81 1014.6
20260505233004 8 1 3.2 14.5 0.00 0.00 0.00 80 1014.7
20260505231504 8 21 4.8 11.3 0.00 0.00 0.00 79 1014.7
20260505224504 9 30 3.2 11.3 0.00 0.00 0.00 77 1014.8
20260505221504 9 32 4.8 22.5 0.00 0.00 0.00 79 1014.7
20260505220005 10 56 4.8 19.3 0.00 0.00 0.00 79 1014.6
20260505214504 10 308 3.2 9.7 0.00 0.00 0.00 81 1014.6
20260505213004 10 35 4.8 16.1 0.00 0.00 0.00 80 1014.6
20260505211504 10 43 4.8 20.9 0.00 0.00 0.00 80 1014.4
20260505210004 10 60 4.8 16.1 0.00 0.00 0.00 80 1014.3
20260505204504 10 42 1.6 12.9 0.00 0.00 0.00 80 1014.4
20260505203004 10 49 3.2 12.9 0.00 0.00 0.00 79 1014.3
20260505200004 11 345 3.2 14.5 0.00 0.00 0.00 76 1014.1
20260505194504 11 348 4.8 14.5 0.00 0.00 0.00 75 1013.7
20260505191503 11 75 3.2 16.1 0.00 0.00 0.00 75 1013.4
20260505184503 12 86 3.2 12.9 0.00 0.00 0.00 74 1012.9
20260505183029 13 50 4.8 14.5 0.00 0.00 0.00 73 1012.8
20260505181504 13 286 3.2 12.9 0.00 0.00 0.00 73 1012.8
20260505180004 13 337 4.8 16.1 0.00 0.00 0.00 72 1012.7
20260505174504 14 22 6.4 16.1 0.00 0.00 0.00 64 1012.7
20260505173005 14 10 4.8 14.5 0.00 0.00 0.00 64 1012.7
20260505164504 15 341 8.0 19.3 0.00 0.00 0.00 62 1012.6
20260505163004 15 356 8.0 16.1 0.00 0.00 0.00 60 1012.6
20260505161504 15 34 9.7 20.9 0.00 0.00 0.00 61 1012.6
20260505153004 15 349 8.0 16.1 0.00 0.00 0.00 64 1012.9
20260505151504 15 330 4.8 19.3 0.00 0.00 0.00 65 1012.8
20260505123004 14 78 3.2 12.9 0.00 0.00 0.00 66 1013.4
20260505121503 15 356 4.8 12.9 0.00 0.00 0.00 66 1013.3
20260505120005 15 4 3.2 12.9 0.00 0.00 0.00 66 1013.4
20260505114505 15 343 6.4 12.9 0.00 0.00 0.00 68 1013.3
20260505113004 14 339 4.8 9.7 0.00 0.00 0.00 69 1013.5
20260505111504 14 30 4.8 14.5 0.00 0.00 0.00 68 1013.6
20260505101504 13 317 3.2 11.3 0.00 0.00 0.00 74 1013.8
20260505100004 13 343 4.8 12.9 0.00 0.00 0.00 75 1013.9
20260505094504 13 55 3.2 8.0 0.00 0.00 0.00 76 1014.0
20260505093004 12 30 1.6 4.8 0.00 0.00 0.00 77 1014.1
20260505091504 12 10 4.8 9.7 0.00 0.00 0.00 77 1014.1
20260505090003 12 342 3.2 12.9 0.00 0.00 0.00 79 1014.1
20260505084504 12 310 1.6 8.0 0.00 0.00 0.00 80 1014.2
20260505083004 11 51 1.6 11.3 0.00 0.00 0.00 83 1014.2
20260505080003 11 353 4.8 9.7 0.00 0.00 0.00 86 1014.3
20260505074503 11 340 4.8 9.7 0.00 0.00 0.00 88 1014.4
20260505073003 10 353 4.8 14.5 0.00 0.00 0.00 88 1014.4
20260505070004 10 350 4.8 11.3 0.00 0.00 0.00 88 1014.3
20260505064504 10 29 4.8 9.7 0.00 0.00 0.00 90 1014.5
20260505063004 10 349 1.6 11.3 0.00 0.00 0.00 90 1014.6
20260505060003 10 22 0.0 3.2 0.00 0.00 0.00 90 1014.7
20260505054503 10 23 1.6 4.8 0.00 0.00 0.00 90 1014.6
20260505053004 10 348 1.6 3.2 0.00 0.00 0.00 91 1014.6